Location: Freistadt
(48.5112°N, 14.5013°E)
Time: 17:26:58
(UTC+02:00)

CUBEBUG 2 - Pass Details

Date: 07 April 2023
Orbit: 577 x 685 km, 97.8° (Epoch: 02 June)

Event Time Altitude Azimuth Distance (km) Brightness Sun altitude
Rises 04:11:46 0° 8° (N) 3,057 ? -21.3°
Reaches altitude 10° 04:14:05 10° 4° (N) 2,128 ? -21.0°
Maximum altitude 04:18:34 49° 290° (WNW) 866 ? -20.4°
Enters shadow 04:19:16 45° 261° (W) 914 ? -20.3°
